Year,Month,Day,Hour,Minute,Value (Times are PST for temperature in C)
2017,05,28,00,00,15.20
2017,05,28,00,01,15.20
2017,05,28,00,02,15.30
2017,05,28,00,03,15.30
2017,05,28,00,04,15.30
2017,05,28,00,05,15.30
2017,05,28,00,06,15.30
2017,05,28,00,07,15.30
2017,05,28,00,08,15.30
2017,05,28,00,09,15.30
2017,05,28,00,10,15.30
2017,05,28,00,11,15.30
2017,05,28,00,12,15.30
2017,05,28,00,13,15.40
2017,05,28,00,14,15.40
2017,05,28,00,15,15.40
2017,05,28,00,16,15.40
2017,05,28,00,17,15.40
2017,05,28,00,18,15.40
2017,05,28,00,19,15.40
2017,05,28,00,20,15.50
2017,05,28,00,21,15.50
2017,05,28,00,22,15.50
2017,05,28,00,23,15.50
2017,05,28,00,24,15.50
2017,05,28,00,25,15.40
2017,05,28,00,26,15.40
2017,05,28,00,27,15.40
2017,05,28,00,28,15.40
2017,05,28,00,29,15.40
2017,05,28,00,30,15.30
2017,05,28,00,31,15.30
2017,05,28,00,32,15.30
2017,05,28,00,33,15.30
2017,05,28,00,34,15.20
2017,05,28,00,35,15.20
2017,05,28,00,36,15.10
2017,05,28,00,37,15.10
2017,05,28,00,38,15.00
2017,05,28,00,39,15.00
2017,05,28,00,40,14.90
2017,05,28,00,41,14.90
2017,05,28,00,42,14.80
2017,05,28,00,43,14.80
2017,05,28,00,44,14.80
2017,05,28,00,45,14.70
2017,05,28,00,46,14.60
2017,05,28,00,47,14.60
2017,05,28,00,48,14.50
2017,05,28,00,49,14.50
2017,05,28,00,50,14.40
2017,05,28,00,51,14.30
2017,05,28,00,52,14.20
2017,05,28,00,53,14.20
2017,05,28,00,54,14.20
2017,05,28,00,55,14.10
2017,05,28,00,56,14.10
2017,05,28,00,57,14.00
2017,05,28,00,58,14.00
2017,05,28,00,59,13.90
2017,05,28,01,00,13.90
2017,05,28,01,01,13.90
2017,05,28,01,02,13.90
2017,05,28,01,03,13.80
2017,05,28,01,04,13.80
2017,05,28,01,05,13.80
2017,05,28,01,06,13.70
2017,05,28,01,07,13.70
2017,05,28,01,08,13.70
2017,05,28,01,09,13.70
2017,05,28,01,10,13.70
2017,05,28,01,11,13.60
2017,05,28,01,12,13.60
2017,05,28,01,13,13.60
2017,05,28,01,14,13.60
2017,05,28,01,15,13.50
2017,05,28,01,16,13.50
2017,05,28,01,17,13.50
2017,05,28,01,18,13.40
2017,05,28,01,19,13.40
2017,05,28,01,20,13.40
2017,05,28,01,21,13.40
2017,05,28,01,22,13.40
2017,05,28,01,23,13.40
2017,05,28,01,24,13.40
2017,05,28,01,25,13.40
2017,05,28,01,26,13.40
2017,05,28,01,27,13.30
2017,05,28,01,28,13.30
2017,05,28,01,29,13.30
2017,05,28,01,30,13.30
2017,05,28,01,31,13.30
2017,05,28,01,32,13.30
2017,05,28,01,33,13.30
2017,05,28,01,34,13.30
2017,05,28,01,35,13.30
2017,05,28,01,36,13.30
2017,05,28,01,37,13.30
2017,05,28,01,38,13.20
2017,05,28,01,39,13.20
2017,05,28,01,40,13.20
2017,05,28,01,41,13.20
2017,05,28,01,42,13.20
2017,05,28,01,43,13.20
2017,05,28,01,44,13.10
2017,05,28,01,45,13.10
2017,05,28,01,46,13.10
2017,05,28,01,47,13.10
2017,05,28,01,48,13.00
2017,05,28,01,49,13.00
2017,05,28,01,50,13.00
2017,05,28,01,51,12.90
2017,05,28,01,52,12.90
2017,05,28,01,53,12.80
2017,05,28,01,54,12.80
2017,05,28,01,55,12.80
2017,05,28,01,56,12.70
2017,05,28,01,57,12.70
2017,05,28,01,58,12.60
2017,05,28,01,59,12.60
2017,05,28,02,00,12.50
2017,05,28,02,01,12.40
2017,05,28,02,02,12.40
2017,05,28,02,03,12.30
2017,05,28,02,04,12.30
2017,05,28,02,05,12.30
2017,05,28,02,06,12.20
2017,05,28,02,07,12.20
2017,05,28,02,08,12.10
2017,05,28,02,09,12.10
2017,05,28,02,10,12.10
2017,05,28,02,11,12.10
2017,05,28,02,12,12.00
2017,05,28,02,13,12.00
2017,05,28,02,14,12.00
2017,05,28,02,15,12.00
2017,05,28,02,16,12.00
2017,05,28,02,17,12.00
2017,05,28,02,18,12.00
2017,05,28,02,19,12.00
2017,05,28,02,20,12.00
2017,05,28,02,21,12.00
2017,05,28,02,22,12.00
2017,05,28,02,23,12.00
2017,05,28,02,24,12.00
2017,05,28,02,25,12.00
2017,05,28,02,26,12.00
2017,05,28,02,27,12.00
2017,05,28,02,28,12.00
2017,05,28,02,29,12.00
2017,05,28,02,30,12.00
2017,05,28,02,31,12.00
2017,05,28,02,32,12.00
2017,05,28,02,33,12.00
2017,05,28,02,34,12.00
2017,05,28,02,35,12.10
2017,05,28,02,36,12.10
2017,05,28,02,37,12.10
2017,05,28,02,38,12.10
2017,05,28,02,39,12.10
2017,05,28,02,40,12.10
2017,05,28,02,41,12.10
2017,05,28,02,42,12.00
2017,05,28,02,43,12.00
2017,05,28,02,44,12.00
2017,05,28,02,45,12.00
2017,05,28,02,46,12.00
2017,05,28,02,47,11.90
2017,05,28,02,48,11.90
2017,05,28,02,49,11.90
2017,05,28,02,50,11.90
2017,05,28,02,51,11.90
2017,05,28,02,52,11.90
2017,05,28,02,53,11.90
2017,05,28,02,54,11.90
2017,05,28,02,55,11.90
2017,05,28,02,56,11.90
2017,05,28,02,57,11.90
2017,05,28,02,58,11.90
2017,05,28,02,59,11.80
2017,05,28,03,00,11.80
2017,05,28,03,01,11.80
2017,05,28,03,02,11.80
2017,05,28,03,03,11.80
2017,05,28,03,04,11.70
2017,05,28,03,05,11.70
2017,05,28,03,06,11.60
2017,05,28,03,07,11.60
2017,05,28,03,08,11.60
2017,05,28,03,09,11.60
2017,05,28,03,10,11.60
2017,05,28,03,11,11.60
2017,05,28,03,12,11.50
2017,05,28,03,13,11.40
2017,05,28,03,14,11.40
2017,05,28,03,15,11.40
2017,05,28,03,16,11.40
2017,05,28,03,17,11.40
2017,05,28,03,18,11.40
2017,05,28,03,19,11.40
2017,05,28,03,20,11.30
2017,05,28,03,21,11.30
2017,05,28,03,22,11.30
2017,05,28,03,23,11.30
2017,05,28,03,24,11.20
2017,05,28,03,25,11.20
2017,05,28,03,26,11.20
2017,05,28,03,27,11.10
2017,05,28,03,28,11.10
2017,05,28,03,29,11.10
2017,05,28,03,30,11.10
2017,05,28,03,31,11.10
2017,05,28,03,32,11.10
2017,05,28,03,33,11.10
2017,05,28,03,34,11.10
2017,05,28,03,35,11.10
2017,05,28,03,36,11.10
2017,05,28,03,37,11.10
2017,05,28,03,38,11.10
2017,05,28,03,39,11.00
2017,05,28,03,40,10.90
2017,05,28,03,41,10.90
2017,05,28,03,42,10.90
2017,05,28,03,43,10.90
2017,05,28,03,44,10.90
2017,05,28,03,45,10.90
2017,05,28,03,46,10.90
2017,05,28,03,47,10.90
2017,05,28,03,48,10.90
2017,05,28,03,49,10.90
2017,05,28,03,50,10.90
2017,05,28,03,51,10.90
2017,05,28,03,52,10.90
2017,05,28,03,53,10.90
2017,05,28,03,54,10.90
2017,05,28,03,55,10.90
2017,05,28,03,56,10.80
2017,05,28,03,57,10.80
2017,05,28,03,58,10.80
2017,05,28,03,59,10.80
2017,05,28,04,00,10.80
2017,05,28,04,01,10.80
2017,05,28,04,02,10.80
2017,05,28,04,03,10.80
2017,05,28,04,04,10.80
2017,05,28,04,05,10.80
2017,05,28,04,06,10.70
2017,05,28,04,07,10.70
2017,05,28,04,08,10.70
2017,05,28,04,09,10.70
2017,05,28,04,10,10.70
2017,05,28,04,11,10.60
2017,05,28,04,12,10.60
2017,05,28,04,13,10.60
2017,05,28,04,14,10.60
2017,05,28,04,15,10.60
2017,05,28,04,16,10.60
2017,05,28,04,17,10.60
2017,05,28,04,18,10.60
2017,05,28,04,19,10.60
2017,05,28,04,20,10.60
2017,05,28,04,21,10.60
2017,05,28,04,22,10.60
2017,05,28,04,23,10.60
2017,05,28,04,24,10.60
2017,05,28,04,25,10.60
2017,05,28,04,26,10.60
2017,05,28,04,27,10.60
2017,05,28,04,28,10.60
2017,05,28,04,29,10.60
2017,05,28,04,30,10.60
2017,05,28,04,31,10.60
2017,05,28,04,32,10.60
2017,05,28,04,33,10.60
2017,05,28,04,34,10.60
2017,05,28,04,35,10.60
2017,05,28,04,36,10.60
2017,05,28,04,37,10.60
2017,05,28,04,38,10.60
2017,05,28,04,39,10.60
2017,05,28,04,40,10.60
2017,05,28,04,41,10.60
2017,05,28,04,42,10.60
2017,05,28,04,43,10.60
2017,05,28,04,44,10.60
2017,05,28,04,45,10.60
2017,05,28,04,46,10.60
2017,05,28,04,47,10.60
2017,05,28,04,48,10.60
2017,05,28,04,49,10.60
2017,05,28,04,50,10.60
2017,05,28,04,51,10.60
2017,05,28,04,52,10.60
2017,05,28,04,53,10.60
2017,05,28,04,54,10.60
2017,05,28,04,55,10.60
2017,05,28,04,56,10.60
2017,05,28,04,57,10.60
2017,05,28,04,58,10.60
2017,05,28,04,59,10.60
2017,05,28,05,00,10.60
2017,05,28,05,01,10.60
2017,05,28,05,02,10.60
2017,05,28,05,03,10.60
2017,05,28,05,04,10.60
2017,05,28,05,05,10.60
2017,05,28,05,06,10.60
2017,05,28,05,07,10.60
2017,05,28,05,08,10.60
2017,05,28,05,09,10.60
2017,05,28,05,10,10.60
2017,05,28,05,11,10.60
2017,05,28,05,12,10.60
2017,05,28,05,13,10.60
2017,05,28,05,14,10.60
2017,05,28,05,15,10.60
2017,05,28,05,16,10.60
2017,05,28,05,17,10.60
2017,05,28,05,18,10.60
2017,05,28,05,19,10.60
2017,05,28,05,20,10.60
2017,05,28,05,21,10.60
2017,05,28,05,22,10.60
2017,05,28,05,23,10.60
2017,05,28,05,24,10.60
2017,05,28,05,25,10.60
2017,05,28,05,26,10.60
2017,05,28,05,27,10.60
2017,05,28,05,28,10.60
2017,05,28,05,29,10.60
2017,05,28,05,30,10.60
2017,05,28,05,31,10.60
2017,05,28,05,32,10.60
2017,05,28,05,33,10.60
2017,05,28,05,34,10.60
2017,05,28,05,35,10.60
2017,05,28,05,36,10.60
2017,05,28,05,37,10.60
2017,05,28,05,38,10.60
2017,05,28,05,39,10.60
2017,05,28,05,40,10.60
2017,05,28,05,41,10.70
2017,05,28,05,42,10.70
2017,05,28,05,43,10.70
2017,05,28,05,44,10.70
2017,05,28,05,45,10.80
2017,05,28,05,46,10.80
2017,05,28,05,47,10.80
2017,05,28,05,48,10.80
2017,05,28,05,49,10.80
2017,05,28,05,50,10.80
2017,05,28,05,51,10.80
2017,05,28,05,52,10.80
2017,05,28,05,53,10.80
2017,05,28,05,54,10.80
2017,05,28,05,55,10.90
2017,05,28,05,56,10.90
2017,05,28,05,57,10.90
2017,05,28,05,58,10.90
2017,05,28,05,59,10.90
2017,05,28,06,00,11.00
2017,05,28,06,01,11.10
2017,05,28,06,02,11.10
2017,05,28,06,03,11.10
2017,05,28,06,04,11.10
2017,05,28,06,05,11.10
2017,05,28,06,06,11.10
2017,05,28,06,07,11.20
2017,05,28,06,08,11.20
2017,05,28,06,09,11.20
2017,05,28,06,10,11.20
2017,05,28,06,11,11.30
2017,05,28,06,12,11.30
2017,05,28,06,13,11.30
2017,05,28,06,14,11.40
2017,05,28,06,15,11.40
2017,05,28,06,16,11.40
2017,05,28,06,17,11.50
2017,05,28,06,18,11.60
2017,05,28,06,19,11.60
2017,05,28,06,20,11.70
2017,05,28,06,21,11.80
2017,05,28,06,22,11.80
2017,05,28,06,23,11.90
2017,05,28,06,24,12.00
2017,05,28,06,25,12.10
2017,05,28,06,26,12.20
2017,05,28,06,27,12.30
2017,05,28,06,28,12.30
2017,05,28,06,29,12.50
2017,05,28,06,30,12.50
2017,05,28,06,31,12.60
2017,05,28,06,32,12.70
2017,05,28,06,33,12.80
2017,05,28,06,34,12.80
2017,05,28,06,35,12.90
2017,05,28,06,36,13.00
2017,05,28,06,37,13.00
2017,05,28,06,38,13.10
2017,05,28,06,39,13.10
2017,05,28,06,40,13.20
2017,05,28,06,41,13.30
2017,05,28,06,42,13.40
2017,05,28,06,43,13.50
2017,05,28,06,44,13.50
2017,05,28,06,45,13.60
2017,05,28,06,46,13.70
2017,05,28,06,47,13.80
2017,05,28,06,48,13.90
2017,05,28,06,49,13.90
2017,05,28,06,50,14.00
2017,05,28,06,51,14.00
2017,05,28,06,52,14.10
2017,05,28,06,53,14.10
2017,05,28,06,54,14.10
2017,05,28,06,55,14.10
2017,05,28,06,56,14.10
2017,05,28,06,57,14.20
2017,05,28,06,58,14.20
2017,05,28,06,59,14.20
2017,05,28,07,00,14.20
2017,05,28,07,01,14.20
2017,05,28,07,02,14.20
2017,05,28,07,03,14.20
2017,05,28,07,04,14.20
2017,05,28,07,05,14.20
2017,05,28,07,06,14.20
2017,05,28,07,07,14.30
2017,05,28,07,08,14.40
2017,05,28,07,09,14.40
2017,05,28,07,10,14.50
2017,05,28,07,11,14.50
2017,05,28,07,12,14.50
2017,05,28,07,13,14.50
2017,05,28,07,14,14.60
2017,05,28,07,15,14.60
2017,05,28,07,16,14.60
2017,05,28,07,17,14.70
2017,05,28,07,18,14.80
2017,05,28,07,19,14.80
2017,05,28,07,20,15.00
2017,05,28,07,21,15.10
2017,05,28,07,22,15.10
2017,05,28,07,23,15.30
2017,05,28,07,24,15.40
2017,05,28,07,25,15.50
2017,05,28,07,26,15.50
2017,05,28,07,27,15.60
2017,05,28,07,28,15.60
2017,05,28,07,29,15.60
2017,05,28,07,30,15.60
2017,05,28,07,31,15.60
2017,05,28,07,32,15.60
2017,05,28,07,33,15.50
2017,05,28,07,34,15.50
2017,05,28,07,35,15.50
2017,05,28,07,36,15.50
2017,05,28,07,37,15.50
2017,05,28,07,38,15.50
2017,05,28,07,39,15.50
2017,05,28,07,40,15.60
2017,05,28,07,41,15.60
2017,05,28,07,42,15.60
2017,05,28,07,43,15.70
2017,05,28,07,44,15.70
2017,05,28,07,45,15.80
2017,05,28,07,46,15.80
2017,05,28,07,47,15.80
2017,05,28,07,48,15.80
2017,05,28,07,49,15.90
2017,05,28,07,50,16.00
2017,05,28,07,51,16.10
2017,05,28,07,52,16.10
2017,05,28,07,53,16.10
2017,05,28,07,54,16.10
2017,05,28,07,55,16.10
2017,05,28,07,56,16.10
2017,05,28,07,57,16.10
2017,05,28,07,58,16.10
2017,05,28,07,59,16.10
2017,05,28,08,00,16.00
2017,05,28,08,01,15.90
2017,05,28,08,02,15.90
2017,05,28,08,03,15.90
2017,05,28,08,04,15.90
2017,05,28,08,05,15.80
2017,05,28,08,06,15.80
2017,05,28,08,07,15.80
2017,05,28,08,08,15.80
2017,05,28,08,09,15.80
2017,05,28,08,10,15.80
2017,05,28,08,11,15.70
2017,05,28,08,12,15.60
2017,05,28,08,13,15.60
2017,05,28,08,14,15.60
2017,05,28,08,15,15.60
2017,05,28,08,16,15.60
2017,05,28,08,17,15.60
2017,05,28,08,18,15.60
2017,05,28,08,19,15.50
2017,05,28,08,20,15.40
2017,05,28,08,21,15.30
2017,05,28,08,22,15.40
2017,05,28,08,23,15.40
2017,05,28,08,24,15.40
2017,05,28,08,25,15.50
2017,05,28,08,26,15.50
2017,05,28,08,27,15.50
2017,05,28,08,28,15.50
2017,05,28,08,29,15.50
2017,05,28,08,30,15.50
2017,05,28,08,31,15.60
2017,05,28,08,32,15.60
2017,05,28,08,33,15.60
2017,05,28,08,34,15.50
2017,05,28,08,35,15.60
2017,05,28,08,36,15.60
2017,05,28,08,37,15.60
2017,05,28,08,38,15.60
2017,05,28,08,39,15.60
2017,05,28,08,40,15.60
2017,05,28,08,41,15.60
2017,05,28,08,42,15.60
2017,05,28,08,43,15.50
2017,05,28,08,44,15.50
2017,05,28,08,45,15.60
2017,05,28,08,46,15.60
2017,05,28,08,47,15.60
2017,05,28,08,48,15.70
2017,05,28,08,49,15.60
2017,05,28,08,50,15.70
2017,05,28,08,51,15.60
2017,05,28,08,52,15.60
2017,05,28,08,53,15.60
2017,05,28,08,54,15.50
2017,05,28,08,55,15.50
2017,05,28,08,56,15.50
2017,05,28,08,57,15.60
2017,05,28,08,58,15.60
2017,05,28,08,59,15.60
2017,05,28,09,00,15.70
2017,05,28,09,01,15.70
2017,05,28,09,02,15.70
2017,05,28,09,03,15.70
2017,05,28,09,04,15.80
2017,05,28,09,05,15.80
2017,05,28,09,06,15.80
2017,05,28,09,07,15.80
2017,05,28,09,08,15.80
2017,05,28,09,09,15.90
2017,05,28,09,10,16.00
2017,05,28,09,11,16.10
2017,05,28,09,12,16.10
2017,05,28,09,13,16.20
2017,05,28,09,14,16.30
2017,05,28,09,15,16.40
2017,05,28,09,16,16.40
2017,05,28,09,17,16.40
2017,05,28,09,18,16.40
2017,05,28,09,19,16.50
2017,05,28,09,20,16.60
2017,05,28,09,21,16.60
2017,05,28,09,22,16.70
2017,05,28,09,23,16.70
2017,05,28,09,24,16.80
2017,05,28,09,25,16.90
2017,05,28,09,26,17.00
2017,05,28,09,27,17.10
2017,05,28,09,28,17.20
2017,05,28,09,29,17.30
2017,05,28,09,30,17.30
2017,05,28,09,31,17.30
2017,05,28,09,32,17.30
2017,05,28,09,33,17.40
2017,05,28,09,34,17.40
2017,05,28,09,35,17.50
2017,05,28,09,36,17.70
2017,05,28,09,37,17.70
2017,05,28,09,38,17.70
2017,05,28,09,39,17.70
2017,05,28,09,40,17.60
2017,05,28,09,41,17.50
2017,05,28,09,42,17.40
2017,05,28,09,43,17.40
2017,05,28,09,44,17.30
2017,05,28,09,45,17.30
2017,05,28,09,46,17.30
2017,05,28,09,47,17.30
2017,05,28,09,48,17.40
2017,05,28,09,49,17.40
2017,05,28,09,50,17.40
2017,05,28,09,51,17.30
2017,05,28,09,52,17.30
2017,05,28,09,53,17.40
2017,05,28,09,54,17.40
2017,05,28,09,55,17.40
2017,05,28,09,56,17.50
2017,05,28,09,57,17.50
2017,05,28,09,58,17.60
2017,05,28,09,59,17.60
2017,05,28,10,00,17.60
2017,05,28,10,01,17.70
2017,05,28,10,02,17.80
2017,05,28,10,03,17.90
2017,05,28,10,04,17.90
2017,05,28,10,05,18.00
2017,05,28,10,06,18.10
2017,05,28,10,07,18.20
2017,05,28,10,08,18.20
2017,05,28,10,09,18.20
2017,05,28,10,10,18.20
2017,05,28,10,11,18.20
2017,05,28,10,12,18.10
2017,05,28,10,13,18.10
2017,05,28,10,14,18.10
2017,05,28,10,15,18.10
2017,05,28,10,16,18.10
2017,05,28,10,17,18.20
2017,05,28,10,18,18.20
2017,05,28,10,19,18.20
2017,05,28,10,20,18.20
2017,05,28,10,21,18.20
2017,05,28,10,22,18.20
2017,05,28,10,23,18.20
2017,05,28,10,24,18.20
2017,05,28,10,25,18.20
2017,05,28,10,26,18.20
2017,05,28,10,27,18.20
2017,05,28,10,28,18.30
2017,05,28,10,29,18.50
2017,05,28,10,30,18.50
2017,05,28,10,31,18.60
2017,05,28,10,32,18.70
2017,05,28,10,33,18.60
2017,05,28,10,34,18.60
2017,05,28,10,35,18.60
2017,05,28,10,36,18.60
2017,05,28,10,37,18.60
2017,05,28,10,38,18.60
2017,05,28,10,39,18.70
2017,05,28,10,40,18.80
2017,05,28,10,41,18.90
2017,05,28,10,42,19.00
2017,05,28,10,43,19.10
2017,05,28,10,44,19.20
2017,05,28,10,45,19.10
2017,05,28,10,46,19.10
2017,05,28,10,47,19.10
2017,05,28,10,48,19.10
2017,05,28,10,49,19.10
2017,05,28,10,50,19.10
2017,05,28,10,51,19.10
2017,05,28,10,52,19.10
2017,05,28,10,53,19.10
2017,05,28,10,54,19.20
2017,05,28,10,55,19.30
2017,05,28,10,56,19.30
2017,05,28,10,57,19.40
2017,05,28,10,58,19.30
2017,05,28,10,59,19.30
2017,05,28,11,00,19.40
2017,05,28,11,01,19.40
2017,05,28,11,02,19.40
2017,05,28,11,03,19.40
2017,05,28,11,04,19.50
2017,05,28,11,05,19.60
2017,05,28,11,06,19.70
2017,05,28,11,07,19.80
2017,05,28,11,08,19.80
2017,05,28,11,09,19.90
2017,05,28,11,10,19.80
2017,05,28,11,11,19.70
2017,05,28,11,12,19.70
2017,05,28,11,13,19.60
2017,05,28,11,14,19.60
2017,05,28,11,15,19.60
2017,05,28,11,16,19.70
2017,05,28,11,17,19.80
2017,05,28,11,18,19.90
2017,05,28,11,19,19.90
2017,05,28,11,20,19.90
2017,05,28,11,21,20.10
2017,05,28,11,22,20.10
2017,05,28,11,23,20.10
2017,05,28,11,24,20.20
2017,05,28,11,25,20.30
2017,05,28,11,26,20.40
2017,05,28,11,27,20.50
2017,05,28,11,28,20.50
2017,05,28,11,29,20.60
2017,05,28,11,30,20.60
2017,05,28,11,31,20.70
2017,05,28,11,32,20.70
2017,05,28,11,33,20.70
2017,05,28,11,34,20.70
2017,05,28,11,35,20.60
2017,05,28,11,36,20.50
2017,05,28,11,37,20.60
2017,05,28,11,38,20.60
2017,05,28,11,39,20.50
2017,05,28,11,40,20.50
2017,05,28,11,41,20.40
2017,05,28,11,42,20.30
2017,05,28,11,43,20.30
2017,05,28,11,44,20.30
2017,05,28,11,45,20.20
2017,05,28,11,46,20.20
2017,05,28,11,47,20.20
2017,05,28,11,48,20.30
2017,05,28,11,49,20.50
2017,05,28,11,50,20.70
2017,05,28,11,51,20.70
2017,05,28,11,52,20.70
2017,05,28,11,53,20.70
2017,05,28,11,54,20.70
2017,05,28,11,55,20.70
2017,05,28,11,56,20.60
2017,05,28,11,57,20.50
2017,05,28,11,58,20.40
2017,05,28,11,59,20.50
2017,05,28,12,00,20.60
2017,05,28,12,01,20.70
2017,05,28,12,02,20.80
2017,05,28,12,03,20.90
2017,05,28,12,04,20.80
2017,05,28,12,05,20.80
2017,05,28,12,06,20.70
2017,05,28,12,07,20.70
2017,05,28,12,08,20.60
2017,05,28,12,09,20.70
2017,05,28,12,10,20.70
2017,05,28,12,11,20.80
2017,05,28,12,12,20.90
2017,05,28,12,13,21.00
2017,05,28,12,14,21.00
2017,05,28,12,15,21.10
2017,05,28,12,16,21.20
2017,05,28,12,17,21.30
2017,05,28,12,18,21.30
2017,05,28,12,19,21.40
2017,05,28,12,20,21.50
2017,05,28,12,21,21.60
2017,05,28,12,22,21.60
2017,05,28,12,23,21.60
2017,05,28,12,24,21.70
2017,05,28,12,25,21.90
2017,05,28,12,26,21.90
2017,05,28,12,27,21.90
2017,05,28,12,28,21.90
2017,05,28,12,29,21.90
2017,05,28,12,30,21.90
2017,05,28,12,31,21.90
2017,05,28,12,32,22.00
2017,05,28,12,33,22.20
2017,05,28,12,34,22.30
2017,05,28,12,35,22.30
2017,05,28,12,36,22.40
2017,05,28,12,37,22.40
2017,05,28,12,38,22.40
2017,05,28,12,39,22.30
2017,05,28,12,40,22.20
2017,05,28,12,41,22.00
2017,05,28,12,42,22.00
2017,05,28,12,43,22.00
2017,05,28,12,44,22.10
2017,05,28,12,45,22.20
2017,05,28,12,46,22.30
2017,05,28,12,47,22.40
2017,05,28,12,48,22.60
2017,05,28,12,49,22.70
2017,05,28,12,50,22.80
2017,05,28,12,51,22.80
2017,05,28,12,52,22.80
2017,05,28,12,53,22.70
2017,05,28,12,54,22.70
2017,05,28,12,55,22.70
2017,05,28,12,56,22.80
2017,05,28,12,57,22.70
2017,05,28,12,58,22.60
2017,05,28,12,59,22.40
2017,05,28,13,00,22.30
2017,05,28,13,01,22.20
2017,05,28,13,02,22.00
2017,05,28,13,03,21.90
2017,05,28,13,04,21.90
2017,05,28,13,05,22.00
2017,05,28,13,06,22.00
2017,05,28,13,07,22.20
2017,05,28,13,08,22.40
2017,05,28,13,09,22.50
2017,05,28,13,10,22.60
2017,05,28,13,11,22.70
2017,05,28,13,12,22.80
2017,05,28,13,13,22.90
2017,05,28,13,14,22.90
2017,05,28,13,15,22.90
2017,05,28,13,16,22.90
2017,05,28,13,17,22.90
2017,05,28,13,18,23.00
2017,05,28,13,19,22.90
2017,05,28,13,20,22.90
2017,05,28,13,21,22.90
2017,05,28,13,22,23.10
2017,05,28,13,23,23.20
2017,05,28,13,24,23.30
2017,05,28,13,25,23.20
2017,05,28,13,26,23.20
2017,05,28,13,27,23.10
2017,05,28,13,28,23.00
2017,05,28,13,29,22.90
2017,05,28,13,30,22.90
2017,05,28,13,31,22.90
2017,05,28,13,32,23.00
2017,05,28,13,33,23.20
2017,05,28,13,34,23.30
2017,05,28,13,35,23.30
2017,05,28,13,36,23.40
2017,05,28,13,37,23.60
2017,05,28,13,38,23.60
2017,05,28,13,39,23.70
2017,05,28,13,40,23.80
2017,05,28,13,41,23.90
2017,05,28,13,42,23.90
2017,05,28,13,43,24.00
2017,05,28,13,44,24.10
2017,05,28,13,45,24.00
2017,05,28,13,46,23.90
2017,05,28,13,47,23.90
2017,05,28,13,48,24.00
2017,05,28,13,49,24.10
2017,05,28,13,50,24.10
2017,05,28,13,51,24.20
2017,05,28,13,52,24.30
2017,05,28,13,53,24.30
2017,05,28,13,54,24.30
2017,05,28,13,55,24.30
2017,05,28,13,56,24.20
2017,05,28,13,57,24.10
2017,05,28,13,58,24.00
2017,05,28,13,59,23.90
2017,05,28,14,00,23.80
2017,05,28,14,01,23.70
2017,05,28,14,02,23.70
2017,05,28,14,03,23.70
2017,05,28,14,04,23.70
2017,05,28,14,05,23.70
2017,05,28,14,06,23.70
2017,05,28,14,07,23.60
2017,05,28,14,08,23.40
2017,05,28,14,09,23.30
2017,05,28,14,10,23.30
2017,05,28,14,11,23.20
2017,05,28,14,12,23.10
2017,05,28,14,13,23.00
2017,05,28,14,14,23.10
2017,05,28,14,15,23.20
2017,05,28,14,16,23.30
2017,05,28,14,17,23.40
2017,05,28,14,18,23.50
2017,05,28,14,19,23.70
2017,05,28,14,20,23.70
2017,05,28,14,21,23.70
2017,05,28,14,22,23.70
2017,05,28,14,23,23.80
2017,05,28,14,24,23.80
2017,05,28,14,25,23.90
2017,05,28,14,26,23.90
2017,05,28,14,27,24.10
2017,05,28,14,28,24.10
2017,05,28,14,29,24.10
2017,05,28,14,30,24.10
2017,05,28,14,31,24.10
2017,05,28,14,32,24.10
2017,05,28,14,33,24.10
2017,05,28,14,34,24.10
2017,05,28,14,35,24.20
2017,05,28,14,36,24.30
2017,05,28,14,37,24.40
2017,05,28,14,38,24.60
2017,05,28,14,39,24.60
2017,05,28,14,40,24.70
2017,05,28,14,41,24.80
2017,05,28,14,42,24.90
2017,05,28,14,43,25.00
2017,05,28,14,44,25.00
2017,05,28,14,45,25.10
2017,05,28,14,46,25.10
2017,05,28,14,47,25.10
2017,05,28,14,48,25.20
2017,05,28,14,49,25.30
2017,05,28,14,50,25.40
2017,05,28,14,51,25.40
2017,05,28,14,52,25.50
2017,05,28,14,53,25.60
2017,05,28,14,54,25.70
2017,05,28,14,55,25.70
2017,05,28,14,56,25.80
2017,05,28,14,57,25.80
2017,05,28,14,58,25.80
2017,05,28,14,59,25.70
2017,05,28,15,00,25.40
2017,05,28,15,01,25.00
2017,05,28,15,02,24.70
2017,05,28,15,03,24.60
2017,05,28,15,04,24.60
2017,05,28,15,05,24.50
2017,05,28,15,06,24.30
2017,05,28,15,07,24.20
2017,05,28,15,08,24.20
2017,05,28,15,09,24.20
2017,05,28,15,10,24.30
2017,05,28,15,11,24.30
2017,05,28,15,12,24.40
2017,05,28,15,13,24.50
2017,05,28,15,14,24.60
2017,05,28,15,15,24.80
2017,05,28,15,16,24.90
2017,05,28,15,17,25.00
2017,05,28,15,18,25.30
2017,05,28,15,19,25.40
2017,05,28,15,20,25.50
2017,05,28,15,21,25.50
2017,05,28,15,22,25.60
2017,05,28,15,23,25.60
2017,05,28,15,24,25.60
2017,05,28,15,25,25.50
2017,05,28,15,26,25.40
2017,05,28,15,27,25.20
2017,05,28,15,28,25.10
2017,05,28,15,29,24.90
2017,05,28,15,30,25.00
2017,05,28,15,31,25.00
2017,05,28,15,32,25.10
2017,05,28,15,33,25.00
2017,05,28,15,34,25.10
2017,05,28,15,35,25.10
2017,05,28,15,36,25.10
2017,05,28,15,37,25.10
2017,05,28,15,38,25.10
2017,05,28,15,39,25.10
2017,05,28,15,40,25.00
2017,05,28,15,41,24.80
2017,05,28,15,42,24.80
2017,05,28,15,43,24.60
2017,05,28,15,44,24.50
2017,05,28,15,45,24.50
2017,05,28,15,46,24.50
2017,05,28,15,47,24.50
2017,05,28,15,48,24.70
2017,05,28,15,49,24.90
2017,05,28,15,50,25.00
2017,05,28,15,51,25.00
2017,05,28,15,52,25.00
2017,05,28,15,53,25.10
2017,05,28,15,54,25.10
2017,05,28,15,55,25.30
2017,05,28,15,56,25.30
2017,05,28,15,57,25.30
2017,05,28,15,58,25.30
2017,05,28,15,59,25.30
2017,05,28,16,00,25.10
2017,05,28,16,01,24.90
2017,05,28,16,02,24.80
2017,05,28,16,03,24.90
2017,05,28,16,04,25.00
2017,05,28,16,05,25.20
2017,05,28,16,06,25.40
2017,05,28,16,07,25.60
2017,05,28,16,08,25.80
2017,05,28,16,09,25.90
2017,05,28,16,10,25.90
2017,05,28,16,11,26.00
2017,05,28,16,12,26.10
2017,05,28,16,13,26.10
2017,05,28,16,14,26.10
2017,05,28,16,15,26.10
2017,05,28,16,16,26.10
2017,05,28,16,17,26.30
2017,05,28,16,18,26.40
2017,05,28,16,19,26.40
2017,05,28,16,20,26.30
2017,05,28,16,21,26.20
2017,05,28,16,22,26.10
2017,05,28,16,23,26.10
2017,05,28,16,24,26.10
2017,05,28,16,25,26.20
2017,05,28,16,26,26.10
2017,05,28,16,27,26.10
2017,05,28,16,28,26.10
2017,05,28,16,29,26.10
2017,05,28,16,30,26.20
2017,05,28,16,31,26.30
2017,05,28,16,32,26.30
2017,05,28,16,33,26.20
2017,05,28,16,34,26.10
2017,05,28,16,35,26.20
2017,05,28,16,36,26.20
2017,05,28,16,37,26.20
2017,05,28,16,38,26.00
2017,05,28,16,39,26.00
2017,05,28,16,40,26.00
2017,05,28,16,41,25.90
2017,05,28,16,42,25.80
2017,05,28,16,43,25.60
2017,05,28,16,44,25.50
2017,05,28,16,45,25.40
2017,05,28,16,46,25.40
2017,05,28,16,47,25.50
2017,05,28,16,48,25.60
2017,05,28,16,49,25.50
2017,05,28,16,50,25.60
2017,05,28,16,51,25.70
2017,05,28,16,52,25.80
2017,05,28,16,53,25.90
2017,05,28,16,54,25.90
2017,05,28,16,55,26.00
2017,05,28,16,56,25.90
2017,05,28,16,57,25.90
2017,05,28,16,58,25.80
2017,05,28,16,59,25.80
2017,05,28,17,00,25.70
2017,05,28,17,01,25.80
2017,05,28,17,02,25.90
2017,05,28,17,03,25.90
2017,05,28,17,04,26.00
2017,05,28,17,05,26.20
2017,05,28,17,06,26.40
2017,05,28,17,07,26.50
2017,05,28,17,08,26.60
2017,05,28,17,09,26.60
2017,05,28,17,10,26.70
2017,05,28,17,11,26.70
2017,05,28,17,12,26.50
2017,05,28,17,13,26.40
2017,05,28,17,14,26.10
2017,05,28,17,15,25.90
2017,05,28,17,16,25.90
2017,05,28,17,17,25.90
2017,05,28,17,18,26.00
2017,05,28,17,19,26.10